Weather in Tomarino

Ukraine / Kherson District     46°52′28″N   33°18′15″E
temp.,
°C
wind,
m/s
gust,
m/s
humid.,
%
clouds,
%
prec.,
mm/h
press.,
hPa
HPBL,
m
9 may, sun
sun900:00+9nnw7126790 0.0 1016819
03:00+6nw511802 0.0 1019482
06:00+5nw410850 0.0 1020368
09:00+10nnw68555 0.0 10221084
12:00+14nnw79375 0.0 10222185
15:00+15nnw7832100 0.0 10232676
18:00+14nnw674176 0.0 10241990
21:00+10nnw33555 0.0 102637
10 may, mon
mon1000:00+7nnw34604 0.0 102751
03:00+6nnw33691 0.0 102730
06:00+6n33730 0.0 102850
09:00+13n34490 0.0 1028764
12:00+16n56325 0.0 10272238
15:00+17n56315 0.0 10252262
18:00+16n57346 0.0 10232247
21:00+11n48520 0.0 1023134
11 may, tue
tue1100:00+8nnw410605 0.0 1022175
03:00+7nnw512690 0.0 1020248
06:00+8nw6146954 0.0 1019423
09:00+10nnw6116355 0.0 1018597
12:00+16n675986 0.0 1016929
15:00+13n577196 0.0 1016650
18:00+14nne477594 0.0 1015684
21:00+10ne35827 0.1 1015153
12 may, wed
wed1200:00+7nne358443 0.0 101577
03:00+6n35908 0.0 1014103
06:00+6n119061 0.0 101318
09:00+11nnw116666 0.0 1013451
12:00+15wsw244694 0.0 10131883
15:00+17s2440100 0.0 10121694
18:00+16sw345188 0.0 1013600
21:00+13ssw237757 0.0 101392
13 may, thu
thu1300:00+11sse22835 0.0 101321
03:00+10e3389100 0.0 101343
06:00+10e3788100 0.0 1012154
09:00+17ese586558 0.0 1012586
12:00+23se674149 0.0 10101406
15:00+24sse67381 0.0 10101310
18:00+23sse5645100 0.0 10091317
21:00+15s336315 0.0 101032